Location: Cicognara
(44.9500°N, 10.4667°E)
Time: 12:49:21
(UTC+00:00)

Cosmos 1900 - Pass Details

Date: 20 June 2021
Orbit: 691 x 730 km, 66.1° (Epoch: 03 August)

Event Time Altitude Azimuth Distance (km) Brightness Sun altitude
Rises 20:33:01 0° 325° (NW) 3,087 9.8 -11.8°
Reaches altitude 10° 20:35:23 10° 323° (NW) 2,162 8.4 -12.0°
Maximum altitude 20:40:16 74° 240° (WSW) 725 4.4 -12.5°
Enters shadow 20:43:51 18° 157° (SSE) 1,653 5.6 -12.9°
